Time,TemperatureF,DewpointF,PressureIn,WindDirection,WindDirectionDegrees,WindSpeedMPH,WindSpeedGustMPH,Humidity,HourlyPrecipIn,Conditions,Clouds,dailyrainin,SolarRadiationWatts/m^2,SoftwareType,DateUTC
2013-07-13 00:03:00,76.6,66.9,29.88,NNE,21,0.0,1.0,72,0.00,,,0.00,0,Wunderground v.1.15,2013-07-13 05:03:00,
2013-07-13 00:09:00,76.5,66.8,29.88,NNE,22,0.0,1.0,72,0.00,,,0.00,0,Wunderground v.1.15,2013-07-13 05:09:00,
2013-07-13 00:14:00,76.4,67.1,29.89,NNE,21,0.0,0.0,73,0.00,,,0.00,0,Wunderground v.1.15,2013-07-13 05:14:00,
2013-07-13 00:19:00,76.3,67.0,29.89,North,10,0.0,1.0,73,0.00,,,0.00,0,Wunderground v.1.15,2013-07-13 05:19:00,
2013-07-13 00:25:00,76.2,66.9,29.88,North,10,0.0,0.0,73,0.00,,,0.00,0,Wunderground v.1.15,2013-07-13 05:25:00,
2013-07-13 00:30:00,76.0,67.1,29.88,North,10,0.0,0.0,74,0.00,,,0.00,0,Wunderground v.1.15,2013-07-13 05:30:00,
2013-07-13 00:36:00,75.9,67.0,29.88,North,10,0.0,1.0,74,0.00,,,0.00,0,Wunderground v.1.15,2013-07-13 05:36:00,
2013-07-13 00:41:00,75.8,67.3,29.88,North,10,0.0,0.0,75,0.00,,,0.00,0,Wunderground v.1.15,2013-07-13 05:41:00,
2013-07-13 00:46:00,75.7,67.2,29.88,North,10,0.0,0.0,75,0.00,,,0.00,0,Wunderground v.1.15,2013-07-13 05:46:00,
2013-07-13 00:51:00,75.6,67.1,29.88,North,10,0.0,0.0,75,0.00,,,0.00,0,Wunderground v.1.15,2013-07-13 05:51:00,
2013-07-13 00:57:00,75.4,67.3,29.88,North,10,0.0,0.0,76,0.00,,,0.00,0,Wunderground v.1.15,2013-07-13 05:57:00,
2013-07-13 01:03:00,75.3,67.2,29.88,North,10,0.0,0.0,76,0.00,,,0.00,0,Wunderground v.1.15,2013-07-13 06:03:00,
2013-07-13 01:08:00,75.1,67.0,29.88,North,10,0.0,0.0,76,0.00,,,0.00,0,Wunderground v.1.15,2013-07-13 06:08:00,
2013-07-13 01:13:00,75.0,67.3,29.88,North,10,0.0,0.0,77,0.00,,,0.00,0,Wunderground v.1.15,2013-07-13 06:13:00,
2013-07-13 01:18:00,74.9,67.2,29.88,North,10,0.0,0.0,77,0.00,,,0.00,0,Wunderground v.1.15,2013-07-13 06:18:00,
2013-07-13 01:24:00,74.7,67.0,29.88,North,10,0.0,1.0,77,0.00,,,0.00,0,Wunderground v.1.15,2013-07-13 06:24:00,
2013-07-13 01:29:00,74.6,67.3,29.88,North,10,0.0,1.0,78,0.00,,,0.00,0,Wunderground v.1.15,2013-07-13 06:29:00,
2013-07-13 01:34:00,74.5,67.2,29.88,North,10,0.0,0.0,78,0.00,,,0.00,0,Wunderground v.1.15,2013-07-13 06:34:00,
2013-07-13 01:39:00,74.4,67.1,29.88,North,10,0.0,0.0,78,0.00,,,0.00,0,Wunderground v.1.15,2013-07-13 06:39:00,
2013-07-13 01:45:00,74.3,67.0,29.88,North,10,0.0,0.0,78,0.00,,,0.00,0,Wunderground v.1.15,2013-07-13 06:45:00,
2013-07-13 01:50:00,74.2,67.3,29.88,North,10,0.0,0.0,79,0.00,,,0.00,0,Wunderground v.1.15,2013-07-13 06:50:00,
2013-07-13 01:55:00,74.2,67.3,29.88,North,10,0.0,0.0,79,0.00,,,0.00,0,Wunderground v.1.15,2013-07-13 06:55:00,
2013-07-13 02:00:00,74.1,67.2,29.88,North,10,0.0,0.0,79,0.00,,,0.00,0,Wunderground v.1.15,2013-07-13 07:00:00,
2013-07-13 02:05:00,74.0,67.4,29.88,North,10,0.0,0.0,80,0.00,,,0.00,0,Wunderground v.1.15,2013-07-13 07:05:00,
2013-07-13 02:11:00,74.0,67.4,29.88,North,10,0.0,0.0,80,0.00,,,0.00,0,Wunderground v.1.15,2013-07-13 07:11:00,
2013-07-13 02:16:00,73.9,67.3,29.88,North,10,0.0,0.0,80,0.00,,,0.00,0,Wunderground v.1.15,2013-07-13 07:16:00,
2013-07-13 02:21:00,73.7,67.5,29.88,North,10,0.0,0.0,81,0.00,,,0.00,0,Wunderground v.1.15,2013-07-13 07:21:00,
2013-07-13 02:26:00,73.6,67.4,29.88,North,10,0.0,0.0,81,0.00,,,0.00,0,Wunderground v.1.15,2013-07-13 07:26:00,
2013-07-13 02:32:00,73.4,67.2,29.88,North,10,0.0,0.0,81,0.00,,,0.00,0,Wunderground v.1.15,2013-07-13 07:32:00,
2013-07-13 02:37:00,73.4,67.2,29.88,North,10,0.0,0.0,81,0.00,,,0.00,0,Wunderground v.1.15,2013-07-13 07:37:00,
2013-07-13 02:42:00,73.4,67.2,29.88,North,10,0.0,0.0,81,0.00,,,0.00,0,Wunderground v.1.15,2013-07-13 07:42:00,
2013-07-13 02:47:00,73.3,67.1,29.88,North,10,0.0,0.0,81,0.00,,,0.00,0,Wunderground v.1.15,2013-07-13 07:47:00,
2013-07-13 02:53:00,73.0,67.2,29.87,North,10,0.0,0.0,82,0.00,,,0.00,0,Wunderground v.1.15,2013-07-13 07:53:00,
2013-07-13 02:59:00,72.8,67.0,29.88,North,10,0.0,0.0,82,0.00,,,0.00,0,Wunderground v.1.15,2013-07-13 07:59:00,
2013-07-13 03:04:00,72.7,66.9,29.87,North,10,0.0,0.0,82,0.00,,,0.00,0,Wunderground v.1.15,2013-07-13 08:04:00,
2013-07-13 03:09:00,72.5,67.0,29.87,North,10,0.0,0.0,83,0.00,,,0.00,0,Wunderground v.1.15,2013-07-13 08:09:00,
2013-07-13 03:14:00,72.2,67.1,29.87,North,10,0.0,0.0,84,0.00,,,0.00,0,Wunderground v.1.15,2013-07-13 08:14:00,
2013-07-13 03:19:00,71.9,67.1,29.87,North,10,0.0,0.0,85,0.00,,,0.00,0,Wunderground v.1.15,2013-07-13 08:19:00,
2013-07-13 03:24:00,71.8,67.0,29.87,North,10,0.0,0.0,85,0.00,,,0.00,0,Wunderground v.1.15,2013-07-13 08:24:00,
2013-07-13 03:30:00,71.6,67.2,29.87,North,10,0.0,0.0,86,0.00,,,0.00,0,Wunderground v.1.15,2013-07-13 08:30:00,
2013-07-13 03:35:00,71.4,67.0,29.88,North,10,0.0,0.0,86,0.00,,,0.00,0,Wunderground v.1.15,2013-07-13 08:35:00,
2013-07-13 03:40:00,71.3,66.9,29.87,North,10,0.0,0.0,86,0.00,,,0.00,0,Wunderground v.1.15,2013-07-13 08:40:00,
2013-07-13 03:46:00,71.1,67.0,29.87,North,10,0.0,0.0,87,0.00,,,0.00,0,Wunderground v.1.15,2013-07-13 08:46:00,
2013-07-13 03:51:00,71.0,66.9,29.87,North,10,0.0,0.0,87,0.00,,,0.00,0,Wunderground v.1.15,2013-07-13 08:51:00,
2013-07-13 03:56:00,71.0,66.9,29.87,North,10,0.0,0.0,87,0.00,,,0.00,0,Wunderground v.1.15,2013-07-13 08:56:00,
2013-07-13 04:01:00,71.0,66.9,29.87,North,10,0.0,0.0,87,0.00,,,0.00,0,Wunderground v.1.15,2013-07-13 09:01:00,
2013-07-13 04:07:00,70.9,66.8,29.86,North,10,0.0,0.0,87,0.00,,,0.00,0,Wunderground v.1.15,2013-07-13 09:07:00,
2013-07-13 04:13:00,70.8,67.1,29.86,North,10,0.0,0.0,88,0.00,,,0.00,0,Wunderground v.1.15,2013-07-13 09:13:00,
2013-07-13 04:19:00,70.7,67.0,29.86,North,10,0.0,0.0,88,0.00,,,0.00,0,Wunderground v.1.15,2013-07-13 09:19:00,
2013-07-13 04:24:00,70.6,66.9,29.86,North,10,0.0,0.0,88,0.00,,,0.00,0,Wunderground v.1.15,2013-07-13 09:24:00,
2013-07-13 04:29:00,70.5,66.8,29.86,North,10,0.0,0.0,88,0.00,,,0.00,0,Wunderground v.1.15,2013-07-13 09:29:00,
2013-07-13 04:34:00,70.4,67.0,29.86,North,10,0.0,0.0,89,0.00,,,0.00,0,Wunderground v.1.15,2013-07-13 09:34:00,
2013-07-13 04:40:00,70.2,66.8,29.86,North,10,0.0,0.0,89,0.00,,,0.00,0,Wunderground v.1.15,2013-07-13 09:40:00,
2013-07-13 04:45:00,70.1,66.7,29.86,North,10,0.0,0.0,89,0.00,,,0.00,0,Wunderground v.1.15,2013-07-13 09:45:00,
2013-07-13 04:51:00,69.9,66.8,29.86,North,10,0.0,0.0,90,0.00,,,0.00,0,Wunderground v.1.15,2013-07-13 09:51:00,
2013-07-13 04:56:00,69.8,66.7,29.86,North,10,0.0,0.0,90,0.00,,,0.00,0,Wunderground v.1.15,2013-07-13 09:56:00,
2013-07-13 05:01:00,69.7,66.6,29.86,North,10,0.0,0.0,90,0.00,,,0.00,0,Wunderground v.1.15,2013-07-13 10:01:00,
2013-07-13 05:06:00,69.7,66.6,29.86,North,10,0.0,1.0,90,0.00,,,0.00,0,Wunderground v.1.15,2013-07-13 10:06:00,
2013-07-13 05:12:00,69.8,66.7,29.86,North,10,0.0,0.0,90,0.00,,,0.00,0,Wunderground v.1.15,2013-07-13 10:12:00,
2013-07-13 05:17:00,69.9,66.5,29.87,North,10,0.0,0.0,89,0.00,,,0.00,0,Wunderground v.1.15,2013-07-13 10:17:00,
2013-07-13 05:23:00,69.9,66.5,29.87,North,10,0.0,0.0,89,0.00,,,0.00,0,Wunderground v.1.15,2013-07-13 10:23:00,
2013-07-13 05:28:00,69.9,66.5,29.87,North,10,0.0,0.0,89,0.00,,,0.00,0,Wunderground v.1.15,2013-07-13 10:28:00,
2013-07-13 05:33:00,69.9,66.5,29.87,North,10,0.0,0.0,89,0.00,,,0.00,0,Wunderground v.1.15,2013-07-13 10:33:00,
2013-07-13 05:39:00,69.8,66.7,29.87,North,10,0.0,0.0,90,0.00,,,0.00,0,Wunderground v.1.15,2013-07-13 10:39:00,
2013-07-13 05:44:00,69.7,66.6,29.88,North,10,0.0,0.0,90,0.00,,,0.00,0,Wunderground v.1.15,2013-07-13 10:44:00,
2013-07-13 05:50:00,69.7,66.3,29.88,North,10,0.0,0.0,89,0.00,,,0.00,0,Wunderground v.1.15,2013-07-13 10:50:00,
2013-07-13 05:56:00,69.9,66.5,29.88,North,10,0.0,0.0,89,0.00,,,0.00,0,Wunderground v.1.15,2013-07-13 10:56:00,
2013-07-13 06:01:00,69.9,66.5,29.88,North,10,0.0,2.0,89,0.00,,,0.00,0,Wunderground v.1.15,2013-07-13 11:01:00,
2013-07-13 06:07:00,69.9,66.5,29.88,North,10,0.0,2.0,89,0.00,,,0.00,0,Wunderground v.1.15,2013-07-13 11:07:00,
2013-07-13 06:12:00,69.9,66.5,29.88,North,10,0.0,0.0,89,0.00,,,0.00,5,Wunderground v.1.15,2013-07-13 11:12:00,
2013-07-13 06:18:00,70.0,66.6,29.89,North,10,0.0,0.0,89,0.00,,,0.00,9,Wunderground v.1.15,2013-07-13 11:18:00,
2013-07-13 06:23:00,70.0,66.6,29.89,North,10,0.0,0.0,89,0.00,,,0.00,16,Wunderground v.1.15,2013-07-13 11:23:00,
2013-07-13 06:28:00,70.1,66.7,29.89,North,10,0.0,0.0,89,0.00,,,0.00,18,Wunderground v.1.15,2013-07-13 11:28:00,
2013-07-13 06:33:00,70.1,66.7,29.89,North,10,0.0,0.0,89,0.00,,,0.00,23,Wunderground v.1.15,2013-07-13 11:33:00,
2013-07-13 06:39:00,70.1,66.7,29.89,North,10,0.0,0.0,89,0.00,,,0.00,28,Wunderground v.1.15,2013-07-13 11:39:00,
2013-07-13 06:44:00,70.2,66.8,29.89,North,10,0.0,2.0,89,0.00,,,0.00,35,Wunderground v.1.15,2013-07-13 11:44:00,
2013-07-13 06:49:00,70.2,66.8,29.89,North,10,0.0,2.0,89,0.00,,,0.00,42,Wunderground v.1.15,2013-07-13 11:49:00,
2013-07-13 06:54:00,70.3,66.9,29.89,North,10,0.0,0.0,89,0.00,,,0.00,47,Wunderground v.1.15,2013-07-13 11:54:00,
2013-07-13 07:00:00,70.6,67.2,29.89,NNE,15,0.0,0.0,89,0.00,,,0.00,70,Wunderground v.1.15,2013-07-13 12:00:00,
2013-07-13 07:06:00,70.8,67.4,29.90,NNE,15,0.0,1.0,89,0.00,,,0.00,47,Wunderground v.1.15,2013-07-13 12:06:00,
2013-07-13 07:11:00,71.0,67.3,29.90,NNE,20,0.0,0.0,88,0.00,,,0.00,56,Wunderground v.1.15,2013-07-13 12:11:00,
2013-07-13 07:16:00,71.2,67.5,29.90,NE,39,1.0,4.0,88,0.00,,,0.00,53,Wunderground v.1.15,2013-07-13 12:16:00,
2013-07-13 07:22:00,71.3,67.6,29.90,NE,38,1.0,1.0,88,0.00,,,0.00,155,Wunderground v.1.15,2013-07-13 12:22:00,
2013-07-13 07:27:00,71.7,68.0,29.90,NE,35,0.0,1.0,88,0.00,,,0.00,172,Wunderground v.1.15,2013-07-13 12:27:00,
2013-07-13 07:32:00,72.1,68.0,29.90,North,10,0.0,0.0,87,0.00,,,0.00,190,Wunderground v.1.15,2013-07-13 12:32:00,
2013-07-13 07:38:00,72.6,68.5,29.90,NE,40,0.0,1.0,87,0.00,,,0.00,206,Wunderground v.1.15,2013-07-13 12:38:00,
2013-07-13 07:43:00,73.1,68.7,29.90,NNE,29,0.0,0.0,86,0.00,,,0.00,223,Wunderground v.1.15,2013-07-13 12:43:00,
2013-07-13 07:48:00,73.4,68.6,29.90,NNE,25,0.0,0.0,85,0.00,,,0.00,243,Wunderground v.1.15,2013-07-13 12:48:00,
2013-07-13 07:53:00,73.7,68.6,29.90,NE,44,0.0,0.0,84,0.00,,,0.00,260,Wunderground v.1.15,2013-07-13 12:53:00,
2013-07-13 07:59:00,74.1,69.0,29.90,NNE,23,1.0,5.0,84,0.00,,,0.00,274,Wunderground v.1.15,2013-07-13 12:59:00,
2013-07-13 08:04:00,74.4,68.9,29.90,NNE,28,1.0,5.0,83,0.00,,,0.00,288,Wunderground v.1.15,2013-07-13 13:04:00,
2013-07-13 08:09:00,74.7,69.2,29.90,NNE,27,0.0,5.0,83,0.00,,,0.00,309,Wunderground v.1.15,2013-07-13 13:09:00,
2013-07-13 08:14:00,75.1,69.2,29.91,North,10,0.0,2.0,82,0.00,,,0.00,327,Wunderground v.1.15,2013-07-13 13:14:00,
2013-07-13 08:20:00,75.4,69.2,29.91,North,10,1.0,1.0,81,0.00,,,0.00,345,Wunderground v.1.15,2013-07-13 13:20:00,
2013-07-13 08:25:00,75.6,69.7,29.91,NNE,25,0.0,1.0,82,0.00,,,0.00,367,Wunderground v.1.15,2013-07-13 13:25:00,
2013-07-13 08:31:00,75.8,69.6,29.91,NNW,327,0.0,0.0,81,0.00,,,0.00,387,Wunderground v.1.15,2013-07-13 13:31:00,
2013-07-13 08:36:00,76.0,69.4,29.91,NNE,27,0.0,0.0,80,0.00,,,0.00,406,Wunderground v.1.15,2013-07-13 13:36:00,
2013-07-13 08:42:00,76.3,69.7,29.92,NE,53,1.0,1.0,80,0.00,,,0.00,422,Wunderground v.1.15,2013-07-13 13:42:00,
2013-07-13 08:47:00,76.6,70.0,29.92,NNE,23,0.0,1.0,80,0.00,,,0.00,439,Wunderground v.1.15,2013-07-13 13:47:00,
2013-07-13 08:52:00,76.9,70.3,29.91,North,5,0.0,0.0,80,0.00,,,0.00,459,Wunderground v.1.15,2013-07-13 13:52:00,
2013-07-13 08:58:00,77.4,70.7,29.91,North,5,0.0,0.0,80,0.00,,,0.00,475,Wunderground v.1.15,2013-07-13 13:58:00,
2013-07-13 09:03:00,78.1,70.7,29.91,East,86,0.0,0.0,78,0.00,,,0.00,494,Wunderground v.1.15,2013-07-13 14:03:00,
2013-07-13 09:08:00,78.6,70.8,29.91,East,84,0.0,0.0,77,0.00,,,0.00,508,Wunderground v.1.15,2013-07-13 14:08:00,
2013-07-13 09:13:00,78.7,70.9,29.91,East,84,0.0,0.0,77,0.00,,,0.00,526,Wunderground v.1.15,2013-07-13 14:13:00,
2013-07-13 09:19:00,78.7,71.3,29.91,ENE,65,0.0,0.0,78,0.00,,,0.00,545,Wunderground v.1.15,2013-07-13 14:19:00,
2013-07-13 09:24:00,78.7,71.3,29.91,ENE,59,0.0,0.0,78,0.00,,,0.00,563,Wunderground v.1.15,2013-07-13 14:24:00,
2013-07-13 09:29:00,79.0,71.2,29.91,ENE,59,0.0,0.0,77,0.00,,,0.00,573,Wunderground v.1.15,2013-07-13 14:29:00,
2013-07-13 09:35:00,79.4,71.6,29.91,NE,39,0.0,2.0,77,0.00,,,0.00,598,Wunderground v.1.15,2013-07-13 14:35:00,
2013-07-13 09:40:00,79.6,71.4,29.91,NE,38,0.0,0.0,76,0.00,,,0.00,619,Wunderground v.1.15,2013-07-13 14:40:00,
2013-07-13 09:45:00,80.0,71.8,29.91,NNE,23,0.0,2.0,76,0.00,,,0.00,606,Wunderground v.1.15,2013-07-13 14:45:00,
2013-07-13 09:50:00,80.2,71.9,29.91,NE,42,0.0,0.0,76,0.00,,,0.00,404,Wunderground v.1.15,2013-07-13 14:50:00,
2013-07-13 09:55:00,80.3,71.6,29.91,NE,41,0.0,2.0,75,0.00,,,0.00,410,Wunderground v.1.15,2013-07-13 14:55:00,
2013-07-13 10:01:00,80.2,72.3,29.91,NE,39,0.0,1.0,77,0.00,,,0.00,329,Wunderground v.1.15,2013-07-13 15:01:00,
2013-07-13 10:06:00,80.3,72.4,29.91,NE,39,0.0,1.0,77,0.00,,,0.00,773,Wunderground v.1.15,2013-07-13 15:06:00,
2013-07-13 10:11:00,80.5,72.2,29.91,NE,52,0.0,1.0,76,0.00,,,0.00,754,Wunderground v.1.15,2013-07-13 15:11:00,
2013-07-13 10:16:00,80.9,72.6,29.90,ESE,106,0.0,1.0,76,0.00,,,0.00,742,Wunderground v.1.15,2013-07-13 15:16:00,
2013-07-13 10:21:00,81.2,72.1,29.90,ESE,106,0.0,0.0,74,0.00,,,0.00,731,Wunderground v.1.15,2013-07-13 15:21:00,
2013-07-13 10:27:00,81.6,72.5,29.91,ESE,106,0.0,2.0,74,0.00,,,0.00,749,Wunderground v.1.15,2013-07-13 15:27:00,
2013-07-13 10:32:00,81.7,73.0,29.91,ESE,105,0.0,2.0,75,0.00,,,0.00,752,Wunderground v.1.15,2013-07-13 15:32:00,
2013-07-13 10:37:00,81.8,73.1,29.91,ESE,103,0.0,2.0,75,0.00,,,0.00,761,Wunderground v.1.15,2013-07-13 15:37:00,
2013-07-13 10:42:00,82.0,72.9,29.91,ESE,102,0.0,0.0,74,0.00,,,0.00,721,Wunderground v.1.15,2013-07-13 15:42:00,
2013-07-13 10:48:00,82.3,72.4,29.91,North,360,1.0,4.0,72,0.00,,,0.00,800,Wunderground v.1.15,2013-07-13 15:48:00,
2013-07-13 10:53:00,82.3,72.8,29.91,NNW,337,2.0,3.0,73,0.00,,,0.00,816,Wunderground v.1.15,2013-07-13 15:53:00,
2013-07-13 10:59:00,82.7,72.7,29.91,East,89,1.0,4.0,72,0.00,,,0.00,861,Wunderground v.1.15,2013-07-13 15:59:00,
2013-07-13 11:04:00,83.1,73.5,29.91,East,88,1.0,4.0,73,0.00,,,0.00,902,Wunderground v.1.15,2013-07-13 16:04:00,
2013-07-13 11:09:00,83.4,73.4,29.91,ESE,119,1.0,4.0,72,0.00,,,0.00,891,Wunderground v.1.15,2013-07-13 16:09:00,
2013-07-13 11:15:00,83.6,73.6,29.91,NE,47,0.0,3.0,72,0.00,,,0.00,960,Wunderground v.1.15,2013-07-13 16:15:00,
2013-07-13 11:20:00,83.5,73.1,29.91,East,79,1.0,1.0,71,0.00,,,0.00,267,Wunderground v.1.15,2013-07-13 16:20:00,
2013-07-13 11:25:00,83.3,72.9,29.91,East,81,0.0,1.0,71,0.00,,,0.00,315,Wunderground v.1.15,2013-07-13 16:25:00,
2013-07-13 11:31:00,82.9,72.9,29.91,NNE,32,1.0,3.0,72,0.00,,,0.00,513,Wunderground v.1.15,2013-07-13 16:31:00,
2013-07-13 11:37:00,82.7,72.7,29.91,NE,52,2.0,3.0,72,0.00,,,0.00,397,Wunderground v.1.15,2013-07-13 16:37:00,
2013-07-13 11:42:00,82.9,73.4,29.91,NE,51,2.0,2.0,73,0.00,,,0.00,981,Wunderground v.1.15,2013-07-13 16:42:00,
2013-07-13 11:47:00,83.6,72.3,29.91,NE,46,1.0,2.0,69,0.00,,,0.00,1016,Wunderground v.1.15,2013-07-13 16:47:00,
2013-07-13 11:52:00,83.8,73.0,29.91,NNE,28,0.0,1.0,70,0.00,,,0.00,343,Wunderground v.1.15,2013-07-13 16:52:00,
2013-07-13 11:58:00,83.8,73.4,29.92,NNE,28,0.0,2.0,71,0.00,,,0.00,1085,Wunderground v.1.15,2013-07-13 16:58:00,
2013-07-13 12:03:00,84.0,74.4,29.91,NE,34,0.0,1.0,73,0.00,,,0.00,432,Wunderground v.1.15,2013-07-13 17:03:00,
2013-07-13 12:08:00,84.0,72.7,29.91,East,92,1.0,5.0,69,0.00,,,0.00,1148,Wunderground v.1.15,2013-07-13 17:08:00,
2013-07-13 12:13:00,84.2,72.0,29.91,East,86,1.0,5.0,67,0.00,,,0.00,253,Wunderground v.1.15,2013-07-13 17:13:00,
2013-07-13 12:33:00,83.6,72.3,29.90,NNE,15,0.0,0.0,69,0.00,,,0.00,468,Wunderground v.1.15,2013-07-13 17:33:00,
2013-07-13 13:19:00,84.5,72.3,29.90,North,354,0.0,2.0,67,0.00,,,0.00,965,Wunderground v.1.15,2013-07-13 18:19:00,
2013-07-13 13:25:00,85.2,72.6,29.89,NNW,339,2.0,2.0,66,0.00,,,0.00,896,Wunderground v.1.15,2013-07-13 18:25:00,
2013-07-13 13:31:00,85.4,72.7,29.90,NNW,334,2.0,2.0,66,0.00,,,0.00,939,Wunderground v.1.15,2013-07-13 18:31:00,
2013-07-13 13:36:00,85.5,71.0,29.89,NNW,336,2.0,6.0,62,0.00,,,0.00,951,Wunderground v.1.15,2013-07-13 18:36:00,
2013-07-13 13:41:00,85.6,71.6,29.89,North,350,2.0,2.0,63,0.00,,,0.00,589,Wunderground v.1.15,2013-07-13 18:41:00,
2013-07-13 13:47:00,85.5,71.5,29.88,NNW,344,1.0,4.0,63,0.00,,,0.00,360,Wunderground v.1.15,2013-07-13 18:47:00,
2013-07-13 13:52:00,85.3,72.2,29.89,North,352,1.0,2.0,65,0.00,,,0.00,373,Wunderground v.1.15,2013-07-13 18:52:00,
2013-07-13 13:58:00,85.1,72.5,29.88,North,352,0.0,2.0,66,0.00,,,0.00,376,Wunderground v.1.15,2013-07-13 18:58:00,
2013-07-13 14:03:00,85.0,72.4,29.88,North,358,0.0,1.0,66,0.00,,,0.00,394,Wunderground v.1.15,2013-07-13 19:03:00,
2013-07-13 14:08:00,84.9,72.3,29.88,NE,46,1.0,3.0,66,0.00,,,0.00,396,Wunderground v.1.15,2013-07-13 19:08:00,
2013-07-13 14:13:00,85.0,72.4,29.87,NE,36,1.0,5.0,66,0.00,,,0.00,424,Wunderground v.1.15,2013-07-13 19:13:00,
2013-07-13 14:18:00,85.3,73.5,29.87,NNE,25,1.0,5.0,68,0.00,,,0.00,786,Wunderground v.1.15,2013-07-13 19:18:00,
2013-07-13 14:23:00,85.3,72.2,29.87,NNE,19,2.0,5.0,65,0.00,,,0.00,691,Wunderground v.1.15,2013-07-13 19:23:00,
2013-07-13 14:29:00,85.2,73.0,29.87,ENE,73,2.0,5.0,67,0.00,,,0.00,647,Wunderground v.1.15,2013-07-13 19:29:00,
2013-07-13 14:34:00,85.2,72.6,29.86,NNW,343,2.0,5.0,66,0.00,,,0.00,700,Wunderground v.1.15,2013-07-13 19:34:00,
2013-07-13 14:40:00,85.2,73.0,29.86,NE,36,2.0,2.0,67,0.00,,,0.00,640,Wunderground v.1.15,2013-07-13 19:40:00,
2013-07-13 14:45:00,85.6,72.9,29.86,NE,34,1.0,3.0,66,0.00,,,0.00,789,Wunderground v.1.15,2013-07-13 19:45:00,
2013-07-13 14:51:00,85.8,73.1,29.86,NE,36,1.0,1.0,66,0.00,,,0.00,905,Wunderground v.1.15,2013-07-13 19:51:00,
2013-07-13 14:57:00,86.0,72.4,29.86,North,5,1.0,1.0,64,0.00,,,0.00,744,Wunderground v.1.15,2013-07-13 19:57:00,
2013-07-13 15:02:00,86.0,72.9,29.86,NNE,15,1.0,3.0,65,0.00,,,0.00,471,Wunderground v.1.15,2013-07-13 20:02:00,
2013-07-13 15:08:00,85.5,72.4,29.86,NE,46,2.0,3.0,65,0.00,,,0.00,304,Wunderground v.1.15,2013-07-13 20:08:00,
2013-07-13 15:13:00,85.1,72.9,29.85,NE,42,1.0,2.0,67,0.00,,,0.00,316,Wunderground v.1.15,2013-07-13 20:13:00,
2013-07-13 15:18:00,84.9,73.2,29.86,NE,42,0.0,2.0,68,0.00,,,0.00,411,Wunderground v.1.15,2013-07-13 20:18:00,
2013-07-13 15:24:00,84.9,72.7,29.86,NE,42,0.0,1.0,67,0.00,,,0.00,570,Wunderground v.1.15,2013-07-13 20:24:00,
2013-07-13 15:30:00,85.1,71.5,29.86,North,5,0.0,1.0,64,0.00,,,0.00,482,Wunderground v.1.15,2013-07-13 20:30:00,
2013-07-13 15:35:00,85.3,72.6,29.85,North,354,1.0,4.0,66,0.00,,,0.00,870,Wunderground v.1.15,2013-07-13 20:35:00,
2013-07-13 15:40:00,85.3,72.6,29.85,NNW,337,2.0,2.0,66,0.00,,,0.00,671,Wunderground v.1.15,2013-07-13 20:40:00,
2013-07-13 15:46:00,85.6,72.9,29.85,ENE,61,2.0,4.0,66,0.00,,,0.00,352,Wunderground v.1.15,2013-07-13 20:46:00,
2013-07-13 15:52:00,85.1,72.5,29.85,NE,36,2.0,4.0,66,0.00,,,0.00,190,Wunderground v.1.15,2013-07-13 20:52:00,
2013-07-13 15:57:00,84.5,72.3,29.85,NNE,15,2.0,4.0,67,0.00,,,0.00,160,Wunderground v.1.15,2013-07-13 20:57:00,
2013-07-13 16:02:00,83.9,71.8,29.85,NNE,23,1.0,4.0,67,0.00,,,0.00,283,Wunderground v.1.15,2013-07-13 21:02:00,
2013-07-13 16:08:00,83.6,72.3,29.85,NNE,20,1.0,4.0,69,0.00,,,0.00,285,Wunderground v.1.15,2013-07-13 21:08:00,
2013-07-13 16:13:00,83.8,73.0,29.85,NNE,33,1.0,1.0,70,0.00,,,0.00,687,Wunderground v.1.15,2013-07-13 21:13:00,
2013-07-13 16:18:00,84.4,74.0,29.85,NNE,32,1.0,1.0,71,0.00,,,0.00,654,Wunderground v.1.15,2013-07-13 21:18:00,
2013-07-13 16:24:00,84.8,73.1,29.85,NNW,331,2.0,7.0,68,0.00,,,0.00,652,Wunderground v.1.15,2013-07-13 21:24:00,
2013-07-13 16:29:00,84.9,72.3,29.85,NE,35,3.0,7.0,66,0.00,,,0.00,308,Wunderground v.1.15,2013-07-13 21:29:00,
2013-07-13 16:35:00,84.6,73.3,29.85,NNE,25,3.0,6.0,69,0.00,,,0.00,587,Wunderground v.1.15,2013-07-13 21:35:00,
2013-07-13 16:40:00,84.4,71.8,29.86,NNE,24,1.0,1.0,66,0.00,,,0.00,172,Wunderground v.1.15,2013-07-13 21:40:00,
2013-07-13 16:45:00,83.9,70.9,29.86,NE,34,1.0,4.0,65,0.00,,,0.00,186,Wunderground v.1.15,2013-07-13 21:45:00,
2013-07-13 16:50:00,83.7,72.4,29.86,NE,34,1.0,1.0,69,0.00,,,0.00,171,Wunderground v.1.15,2013-07-13 21:50:00,
2013-07-13 16:55:00,84.1,72.8,29.86,NE,34,0.0,1.0,69,0.00,,,0.00,561,Wunderground v.1.15,2013-07-13 21:55:00,
2013-07-13 17:00:00,84.8,73.5,29.86,NE,37,0.0,2.0,69,0.00,,,0.00,515,Wunderground v.1.15,2013-07-13 22:00:00,
2013-07-13 17:06:00,85.1,72.0,29.86,NNW,345,2.0,4.0,65,0.00,,,0.00,538,Wunderground v.1.15,2013-07-13 22:06:00,
2013-07-13 17:11:00,85.5,73.7,29.85,NNW,340,1.0,2.0,68,0.00,,,0.00,538,Wunderground v.1.15,2013-07-13 22:11:00,
2013-07-13 17:16:00,85.7,72.1,29.85,NNW,331,1.0,6.0,64,0.00,,,0.00,504,Wunderground v.1.15,2013-07-13 22:16:00,
2013-07-13 17:21:00,85.6,72.5,29.86,NNW,347,2.0,3.0,65,0.00,,,0.00,506,Wunderground v.1.15,2013-07-13 22:21:00,
2013-07-13 17:26:00,85.6,72.9,29.86,NNE,15,2.0,5.0,66,0.00,,,0.00,497,Wunderground v.1.15,2013-07-13 22:26:00,
2013-07-13 17:31:00,85.6,72.5,29.85,North,10,2.0,2.0,65,0.00,,,0.00,499,Wunderground v.1.15,2013-07-13 22:31:00,
2013-07-13 17:36:00,85.6,72.5,29.85,NE,37,3.0,4.0,65,0.00,,,0.00,478,Wunderground v.1.15,2013-07-13 22:36:00,
2013-07-13 17:41:00,85.6,72.5,29.85,NE,36,2.0,2.0,65,0.00,,,0.00,427,Wunderground v.1.15,2013-07-13 22:41:00,
2013-07-13 17:46:00,85.6,72.9,29.85,NE,35,1.0,2.0,66,0.00,,,0.00,415,Wunderground v.1.15,2013-07-13 22:46:00,
2013-07-13 17:51:00,85.5,72.8,29.85,NE,54,2.0,3.0,66,0.00,,,0.00,396,Wunderground v.1.15,2013-07-13 22:51:00,
2013-07-13 17:56:00,85.4,72.3,29.85,ENE,64,3.0,4.0,65,0.00,,,0.00,394,Wunderground v.1.15,2013-07-13 22:56:00,
2013-07-13 18:01:00,85.1,72.0,29.85,NE,45,3.0,3.0,65,0.00,,,0.00,352,Wunderground v.1.15,2013-07-13 23:01:00,
2013-07-13 18:06:00,85.0,72.4,29.85,NNE,25,2.0,5.0,66,0.00,,,0.00,316,Wunderground v.1.15,2013-07-13 23:06:00,
2013-07-13 18:13:00,84.6,72.0,29.86,NE,41,1.0,3.0,66,0.00,,,0.00,149,Wunderground v.1.15,2013-07-13 23:13:00,
2013-07-13 18:19:00,84.1,72.4,29.86,NE,50,1.0,3.0,68,0.00,,,0.00,114,Wunderground v.1.15,2013-07-13 23:19:00,
2013-07-13 18:24:00,83.7,72.4,29.86,NE,50,1.0,4.0,69,0.00,,,0.00,118,Wunderground v.1.15,2013-07-13 23:24:00,
2013-07-13 18:30:00,83.3,72.1,29.86,NE,50,0.0,3.0,69,0.00,,,0.00,107,Wunderground v.1.15,2013-07-13 23:30:00,
2013-07-13 18:56:00,82.1,71.3,29.86,NE,34,0.0,1.0,70,0.00,,,0.00,30,Wunderground v.1.15,2013-07-13 23:56:00,
2013-07-13 19:24:00,80.6,71.5,29.87,NE,34,0.0,0.0,74,0.00,,,0.00,16,Wunderground v.1.15,2013-07-14 00:24:00,
2013-07-13 19:51:00,79.9,70.9,29.87,NE,34,0.0,0.0,74,0.00,,,0.00,9,Wunderground v.1.15,2013-07-14 00:51:00,
2013-07-13 20:10:00,79.0,70.8,29.87,NE,34,0.0,0.0,76,0.00,,,0.00,0,Wunderground v.1.15,2013-07-14 01:10:00,
2013-07-13 20:15:00,78.8,71.0,29.88,NE,34,0.0,0.0,77,0.00,,,0.00,0,Wunderground v.1.15,2013-07-14 01:15:00,
2013-07-13 20:20:00,78.7,70.9,29.87,NE,34,0.0,0.0,77,0.00,,,0.00,0,Wunderground v.1.15,2013-07-14 01:20:00,
2013-07-13 20:27:00,78.5,71.1,29.87,NE,34,0.0,0.0,78,0.00,,,0.00,0,Wunderground v.1.15,2013-07-14 01:27:00,
2013-07-13 20:32:00,78.3,70.9,29.87,NE,34,0.0,0.0,78,0.00,,,0.00,0,Wunderground v.1.15,2013-07-14 01:32:00,
2013-07-13 20:39:00,77.9,70.9,29.88,NE,34,0.0,0.0,79,0.00,,,0.00,0,Wunderground v.1.15,2013-07-14 01:39:00,
2013-07-13 20:44:00,77.5,70.8,29.88,NE,34,0.0,0.0,80,0.00,,,0.00,0,Wunderground v.1.15,2013-07-14 01:44:00,
2013-07-13 20:49:00,77.3,70.6,29.88,NE,34,0.0,0.0,80,0.00,,,0.00,0,Wunderground v.1.15,2013-07-14 01:49:00,
2013-07-13 20:54:00,77.2,70.5,29.88,NE,34,0.0,0.0,80,0.00,,,0.00,0,Wunderground v.1.15,2013-07-14 01:54:00,
2013-07-13 20:59:00,77.1,70.8,29.88,NE,34,0.0,0.0,81,0.00,,,0.00,0,Wunderground v.1.15,2013-07-14 01:59:00,
2013-07-13 21:04:00,76.9,70.6,29.88,NE,34,0.0,0.0,81,0.00,,,0.00,0,Wunderground v.1.15,2013-07-14 02:04:00,
2013-07-13 21:09:00,76.7,70.8,29.88,NE,34,0.0,0.0,82,0.00,,,0.00,0,Wunderground v.1.15,2013-07-14 02:09:00,
2013-07-13 21:14:00,76.5,70.9,29.88,NE,34,0.0,0.0,83,0.00,,,0.00,0,Wunderground v.1.15,2013-07-14 02:14:00,
2013-07-13 21:19:00,76.2,70.7,29.88,NE,34,0.0,0.0,83,0.00,,,0.00,0,Wunderground v.1.15,2013-07-14 02:19:00,
2013-07-13 21:24:00,76.0,70.5,29.88,NE,34,0.0,0.0,83,0.00,,,0.00,0,Wunderground v.1.15,2013-07-14 02:24:00,
2013-07-13 21:29:00,75.8,70.6,29.88,NE,34,0.0,0.0,84,0.00,,,0.00,0,Wunderground v.1.15,2013-07-14 02:29:00,
2013-07-13 21:34:00,75.6,70.1,29.88,NE,34,0.0,0.0,83,0.00,,,0.00,0,Wunderground v.1.15,2013-07-14 02:34:00,
2013-07-13 21:40:00,75.8,69.9,29.88,NE,34,0.0,0.0,82,0.00,,,0.00,0,Wunderground v.1.15,2013-07-14 02:40:00,
2013-07-13 21:45:00,75.8,69.6,29.88,NE,34,0.0,0.0,81,0.00,,,0.00,0,Wunderground v.1.15,2013-07-14 02:45:00,
2013-07-13 21:52:00,75.7,69.5,29.89,NE,34,0.0,0.0,81,0.00,,,0.00,0,Wunderground v.1.15,2013-07-14 02:52:00,
2013-07-13 22:02:00,75.4,69.2,29.89,NE,34,0.0,0.0,81,0.00,,,0.00,0,Wunderground v.1.15,2013-07-14 03:02:00,
2013-07-13 22:08:00,75.3,69.1,29.90,NE,34,0.0,0.0,81,0.00,,,0.00,0,Wunderground v.1.15,2013-07-14 03:08:00,
2013-07-13 22:13:00,75.1,69.2,29.90,NE,34,0.0,0.0,82,0.00,,,0.00,0,Wunderground v.1.15,2013-07-14 03:13:00,
2013-07-13 22:22:00,74.8,68.9,29.90,NE,34,0.0,0.0,82,0.00,,,0.00,0,Wunderground v.1.15,2013-07-14 03:22:00,
2013-07-13 22:32:00,74.5,69.0,29.90,NE,34,0.0,0.0,83,0.00,,,0.00,0,Wunderground v.1.15,2013-07-14 03:32:00,
2013-07-13 22:37:00,74.3,68.4,29.90,NE,34,0.0,0.0,82,0.00,,,0.00,0,Wunderground v.1.15,2013-07-14 03:37:00,
2013-07-13 22:44:00,74.2,68.3,29.90,NE,34,0.0,0.0,82,0.00,,,0.00,0,Wunderground v.1.15,2013-07-14 03:44:00,
2013-07-13 22:50:00,74.1,68.3,29.90,NE,34,0.0,0.0,82,0.00,,,0.00,0,Wunderground v.1.15,2013-07-14 03:50:00,
2013-07-13 23:07:00,73.8,68.0,29.90,NE,34,0.0,0.0,82,0.00,,,0.00,0,Wunderground v.1.15,2013-07-14 04:07:00,
2013-07-13 23:11:00,73.7,67.9,29.90,NE,34,0.0,0.0,82,0.00,,,0.00,0,Wunderground v.1.15,2013-07-14 04:11:00,
2013-07-13 23:13:00,73.7,67.9,29.90,NE,34,0.0,0.0,82,0.00,,,0.00,0,Wunderground v.1.15,2013-07-14 04:13:00,
2013-07-13 23:16:00,73.6,68.1,29.90,NE,34,0.0,0.0,83,0.00,,,0.00,0,Wunderground v.1.15,2013-07-14 04:16:00,
2013-07-13 23:17:00,73.6,68.1,29.90,NE,34,0.0,0.0,83,0.00,,,0.00,0,Wunderground v.1.15,2013-07-14 04:17:00,
2013-07-13 23:22:00,73.4,68.3,29.91,NE,34,0.0,0.0,84,0.00,,,0.00,0,Wunderground v.1.15,2013-07-14 04:22:00,
2013-07-13 23:27:00,73.4,68.3,29.91,NE,34,0.0,0.0,84,0.00,,,0.00,0,Wunderground v.1.15,2013-07-14 04:27:00,
2013-07-13 23:32:00,73.3,68.5,29.91,NE,34,0.0,0.0,85,0.00,,,0.00,0,Wunderground v.1.15,2013-07-14 04:32:00,
2013-07-13 23:38:00,73.3,68.5,29.91,NE,34,0.0,0.0,85,0.00,,,0.00,0,Wunderground v.1.15,2013-07-14 04:38:00,
2013-07-13 23:43:00,73.1,68.7,29.91,ENE,63,1.0,4.0,86,0.00,,,0.00,0,Wunderground v.1.15,2013-07-14 04:43:00,
2013-07-13 23:48:00,73.0,69.2,29.91,East,80,1.0,4.0,88,0.00,,,0.00,0,Wunderground v.1.15,2013-07-14 04:48:00,
2013-07-13 23:53:00,72.8,69.0,29.91,East,80,0.0,1.0,88,0.00,,,0.00,0,Wunderground v.1.15,2013-07-14 04:53:00,
2013-07-13 23:58:00,72.6,69.2,29.91,East,81,0.0,2.0,89,0.00,,,0.00,0,Wunderground v.1.15,2013-07-14 04:58:00,